Regional Weather Roundup
Issued by NWS

Home | Current Version | Previous Version | Text Only | Print | Product List | Glossary On
Versions: 1 2 3 4 5 6 7 8 9 10 11 12 13 14 15 16 17 18 19 20 21 22 23 24 25 26 27 28 29 30 31 32 33 34 35 36 37 38 39 40 41 42 43 44 45 46 47 48 49 50
000
ASUS43 KBIS 201120
RWRND

NORTH DAKOTA REGIONAL WEATHER ROUNDUP
NATIONAL WEATHER SERVICE BISMARCK ND
600 AM CDT WED AUG 20 2014

NOTE: "FAIR" INDICATES FEW OR NO CLOUDS BELOW 12,000 FEET WITH NO
SIGNIFICANT WEATHER AND/OR OBSTRUCTIONS TO VISIBILITY.


NDZ001>003-009>011-017-201200-
NORTHWEST NORTH DAKOTA

CITY           SKY/WX    TMP DP  RH WIND       PRES   REMARKS
WILLISTON      CLOUDY    70  60  70 SE6       29.61F
MINOT          CLEAR     63  60  90 CALM      29.66F
MINOT AFB      CLEAR     63  63  99 SE8       29.65F
$$

NDZ018>021-031>035-040>046-201200-
SOUTHWEST NORTH DAKOTA

CITY           SKY/WX    TMP DP  RH WIND       PRES   REMARKS
BISMARCK       CLEAR     65  61  87 E9        29.70S
DICKINSON      PTCLDY    63  59  87 S9        29.66S
GARRISON         N/A     65  63  93 SE6       29.68S
HETTINGER ARPT MOCLDY    68  62  81 SE8       29.70S
$$

NDZ004>008-012>016-024-026-027-054-201200-
NORTHEAST NORTH DAKOTA

CITY           SKY/WX    TMP DP  RH WIND       PRES   REMARKS
GRAND FORKS    PTCLDY    63  61  93 SE7       29.76S
GRND FRKS AFB  PTCLDY    63  63 100 SE5       29.77S
DEVILS LAKE    PTCLDY    68  61  77 SE8       29.73S
$$

NDZ022-023-025-028>030-036>039-047>053-201200-
SOUTHEAST NORTH DAKOTA

CITY           SKY/WX    TMP DP  RH WIND       PRES   REMARKS
FARGO          PTCLDY    65  62  90 SE6       29.76F
JAMESTOWN      CLEAR     64  61  90 SE6       29.74F
$$




USA.gov is the U.S. government's official web portal to all federal, state and local government web resources and services.